Regional Weather Roundup
Issued by NWS Burlington, VT

Current Version | Previous Version | Text Only | Print | Product List | Glossary On
Versions: 1 2 3 4 5 6 7 8 9 10 11 12 13 14 15 16 17 18 19 20 21 22 23 24 25 26 27 28 29 30 31 32 33 34 35 36 37 38 39 40 41 42 43 44 45 46 47 48 49 50
000 ASUS41 KBTV 250830 RWRBTV VERMONT REGIONAL WEATHER ROUNDUP NATIONAL WEATHER SERVICE BURLINGTON VT 400 AM EDT SUN SEP 25 2016 NOTE: "FAIR" INDICATES FEW OR NO CLOUDS BELOW 12,000 FEET WITH NO SIGNIFICANT WEATHER AND/OR OBSTRUCTIONS TO VISIBILITY. * THESE REPORTS ARE NOT UNDER NWS QUALITY CONTROL AND/OR DO NOT REPORT WEATHER SUCH AS PRECIPITATION AND FOG. VTZ001>019-250900- _____VERMONT_____ CITY SKY/WX TMP DP RH WIND PRES REMARKS BURLINGTON CLEAR 40 36 86 CALM 30.18S MONTPELIER CLEAR 42 34 73 W3 30.18S MORRISVILLE CLEAR 34 32 92 SW5 30.17S WCI 30 LYNDONVILLE* FAIR 39 34 81 W3 30.13S MIDDLEBURY* FAIR 39 39 100 CALM 30.18S RUTLAND* CLEAR 37 35 92 CALM 30.17S SPRINGFIELD CLEAR 36 33 89 CALM 30.16S HIGHGATE* FAIR 41 38 89 CALM 30.17S NEWPORT* FAIR 41 35 77 W5 30.13F BENNINGTON CLEAR 35 33 92 CALM 30.16F SUTTON* N/A 36 N/A N/A MISG N/A ISLAND POND* N/A 36 N/A N/A CALM N/A GALLUP MILLS* N/A 28 N/A N/A MISG N/A UNION VILLAGE* N/A 36 N/A N/A MISG N/A MT. MANSFIELD* N/A 32 N/A N/A NW30 N/A WCI 18 _____LAKE CHAMPLAIN_____ CITY SKY/WX TMP DP RH WIND PRES REMARKS BURTON ISLAND* N/A 52 45 76 W3 N/A COLCHESTER RF* N/A 52 41 66 NW18 N/A DIAMOND ISL* N/A 50 36 57 W13 N/A $$ NYZ007-026>031-035-052-083-087-250900- _____NORTHERN NEW YORK_____ CITY SKY/WX TMP DP RH WIND PRES REMARKS PLATTSBURGH CLEAR 44 36 73 W6 30.18S SARANAC LAKE CLEAR 28 25 88 CALM 30.18S MASSENA CLEAR 37 34 89 CALM 30.24S OGDENSBURG* CLEAR 36 34 93 CALM 30.24S POTSDAM* CLEAR 34 34 100 CALM 30.24R STARK FALLS* N/A 90 N/A N/A NW2 N/A WATERTOWN CLEAR 33 32 96 CALM 30.24S FT DRUM CLEAR 38 36 90 CALM 30.23R ALBANY CLEAR 43 39 86 CALM 30.19R GLENS FALLS CLEAR 37 34 89 CALM 30.18F $$ NHZ002-005-011-250900- _____NEW HAMPSHIRE_____ CITY SKY/WX TMP DP RH WIND PRES REMARKS LEBANON CLEAR 38 36 92 VRB3 30.14S KEENE FOG 37 37 100 CALM 30.16S VSB 1/4 MT WASHINGTON FOG 23 23 100 NW45G59 N/A VSB 0 WCI 2 PLYMOUTH FAIR 42 36 79 W7 30.12S WHITEFIELD CLEAR 31 28 89 CALM 30.12S $$ _____REGIONAL QUEBEC LOCATIONS_____ CITY SKY/WX TMP DP RH WIND PRES REMARKS MONTREAL CLEAR 45 37 76 NW10 30.17F QUEBEC CITY MOCLDY 41 37 87 W13 30.07S SHERBROOKE CLOUDY 37 37 100 W6 30.11S _____REGIONAL ONTARIO LOCATIONS_____ CITY SKY/WX TMP DP RH WIND PRES REMARKS OTTAWA CLEAR 39 36 87 W5 30.23S ______KEY______ VSB - VISIBILITY IN MILES WCI - WIND CHILL INDEX HX - HEAT INDEX $$ NNNN

USA.gov is the U.S. government's official web portal to all federal, state and local government web resources and services.